Location: Unspecified
(0.0000°N, 0.0000°E)
Time: 11:00:31
(UTC+00:00)

NNS O-18 - Visible Passes

Search period start: 09 November 2025 00:00
Search period end: 19 November 2025 00:00
Orbit: 1013 x 1120 km, 90.0° (Epoch: 08 November)

Date Brightness Start Highest point End Pass type
(mag) Time Alt. Az. Time Alt. Az. Time Alt. Az.
09 Nov 10.1 02:58:46 18° S 02:58:46 18° S 03:00:16 10° S visible
10 Nov 10.8 02:05:01 10° SSE 02:05:01 10° SSE 02:05:01 10° SSE visible
11 Nov 10.3 02:57:51 14° S 02:57:51 14° S 02:58:37 10° S visible
13 Nov 10.5 02:56:52 10° S 02:56:52 10° S 02:56:57 10° S visible
